FW7322 Weather Reports


Display with metric or nautical units.
time (UTC)temp
F
wind
direction
speed
MPH
gust
MPH
rain 1hr
in
rain 24hr
in
rain mn
in
humidity
%
barometer
mb
20260502212006 55 102 1.0 7.0 0.00 0.16 0.08 51 1036.0
20260502211506 55 91 2.0 7.0 0.00 0.16 0.08 51 1036.0
20260502211006 55 207 1.0 9.0 0.00 0.16 0.08 52 1035.9
20260502210505 54 78 3.0 10.0 0.00 0.16 0.08 49 1035.9
20260502210005 53 75 2.0 10.0 0.00 0.16 0.08 53 1036.0
20260502205506 53 98 3.0 9.0 0.00 0.16 0.08 51 1035.9
20260502205007 53 101 2.0 8.0 0.00 0.16 0.08 53 1036.0
20260502204505 53 69 1.0 8.0 0.00 0.16 0.08 51 1036.0
20260502204005 53 129 1.0 11.0 0.00 0.16 0.08 52 1036.0
20260502203506 53 96 4.0 11.0 0.00 0.16 0.08 50 1036.0
20260502203004 54 81 3.0 10.0 0.00 0.16 0.08 49 1036.1
20260502202503 54 75 1.0 12.0 0.00 0.16 0.08 48 1036.1
20260502202003 54 75 3.0 16.0 0.00 0.16 0.08 47 1036.2
20260502201503 55 79 6.0 16.0 0.00 0.16 0.08 45 1036.2
20260502201003 56 88 4.0 9.0 0.00 0.16 0.08 49 1036.3
20260502200505 55 72 3.0 11.0 0.00 0.16 0.08 49 1036.1
20260502200003 54 81 3.0 11.0 0.00 0.16 0.08 48 1036.2
20260502195501 54 104 0.0 9.0 0.00 0.16 0.08 50 1036.3
20260502195003 54 86 0.0 8.0 0.00 0.16 0.08 51 1036.4
20260502194503 54 67 2.0 9.0 0.00 0.16 0.08 48 1036.4
20260502194002 54 76 1.0 9.0 0.00 0.16 0.08 50 1036.5
20260502193502 54 84 1.0 6.0 0.00 0.16 0.08 48 1036.6
20260502193001 54 80 0.0 6.0 0.00 0.16 0.08 50 1036.7
20260502192600 54 100 0.0 6.0 0.00 0.16 0.08 51 1036.7
20260502192100 54 68 2.0 6.0 0.00 0.16 0.08 47 1036.7
20260502191614 54 199 0.0 7.0 0.00 0.16 0.08 52 1037.0
20260502191100 54 75 0.0 7.0 0.00 0.16 0.08 50 1037.3
20260502190600 54 81 1.0 7.0 0.00 0.16 0.08 50 1037.2
20260502190100 54 80 3.0 10.0 0.00 0.16 0.08 47 1037.3
20260502185559 54 75 2.0 11.0 0.00 0.16 0.08 52 1037.3
20260502185059 54 86 5.0 11.0 0.00 0.16 0.08 44 1037.3
20260502184610 55 85 0.0 5.0 0.00 0.16 0.08 47 1037.3
20260502184059 54 89 0.0 13.0 0.00 0.16 0.08 49 1037.4
20260502183559 55 89 5.0 13.0 0.00 0.16 0.08 44 1037.3
20260502183059 56 65 2.0 8.0 0.00 0.16 0.08 46 1037.3
20260502182557 55 89 2.0 7.0 0.00 0.16 0.08 46 1037.3
20260502182057 55 87 1.0 8.0 0.00 0.16 0.08 47 1037.4
20260502181558 55 75 1.0 8.0 0.00 0.16 0.08 44 1037.4
20260502181058 56 97 1.0 12.0 0.00 0.16 0.08 43 1037.3
20260502180558 56 80 3.0 12.0 0.00 0.16 0.08 54 1037.3
20260502164050 52 277 0.0 4.0 0.00 0.16 0.08 57 1037.9
20260502163548 52 278 0.0 0.0 0.00 0.16 0.08 53 1037.8
20260502163050 52 284 0.0 0.0 0.00 0.16 0.08 52 1037.8
20260502162546 52 81 0.0 0.0 0.00 0.16 0.08 61 1037.8
20260502162045 52 89 0.0 6.0 0.00 0.16 0.08 56 1037.7
20260502161606 52 78 0.0 8.0 0.00 0.16 0.08 57 1037.8
20260502161045 52 82 0.0 8.0 0.00 0.16 0.08 54 1037.9
20260502160546 52 84 2.0 8.0 0.00 0.16 0.08 54 1037.9
20260502160105 53 88 2.0 6.0 0.00 0.16 0.08 51 1037.9
20260502152041 51 119 1.0 6.0 0.00 0.16 0.08 59 1038.1
20260502151542 51 60 2.0 6.0 0.00 0.16 0.08 56 1038.2
20260502151041 52 84 1.0 7.0 0.00 0.16 0.08 54 1038.1
20260502150541 51 108 1.0 7.0 0.00 0.16 0.08 60 1038.1
20260502130526 46 165 1.0 6.0 0.00 0.16 0.08 76 1038.7
20260502123524 46 75 1.0 6.0 0.00 0.16 0.08 80 1038.9
20260502123044 46 91 0.0 7.0 0.00 0.16 0.08 83 1038.9
20260502122523 45 75 0.0 7.0 0.00 0.16 0.08 84 1038.8
20260502122029 45 72 1.0 7.0 0.00 0.16 0.08 83 1038.9
20260502121523 45 77 1.0 6.0 0.00 0.16 0.08 82 1038.9
20260502121022 44 113 1.0 6.0 0.00 0.16 0.08 83 1038.9
20260502120525 44 82 1.0 6.0 0.00 0.16 0.08 83 1038.7
20260502115525 44 77 0.0 7.0 0.00 0.16 0.08 84 1038.8
20260502115020 44 81 2.0 7.0 0.00 0.16 0.08 84 1038.7
20260502114520 43 72 1.0 4.0 0.00 0.16 0.08 86 1038.8
20260502114019 43 70 0.0 3.0 0.00 0.16 0.08 87 1038.6
20260502113519 43 83 0.0 0.0 0.00 0.16 0.08 87 1038.6
20260502113018 43 76 0.0 0.0 0.00 0.16 0.08 89 1038.6
20260502112517 43 72 0.0 0.0 0.00 0.16 0.08 90 1038.7
20260502112019 42 72 0.0 0.0 0.00 0.16 0.08 91 1038.7
20260502111517 42 72 0.0 0.0 0.00 0.16 0.08 91 1038.7
20260502111016 41 72 0.0 2.0 0.00 0.16 0.08 93 1038.6
20260502110516 40 73 0.0 2.0 0.00 0.16 0.08 93 1038.6
20260502110016 39 94 0.0 1.0 0.00 0.16 0.08 93 1038.5
20260502105516 38 94 0.0 1.0 0.00 0.17 0.08 93 1038.5
20260502105014 37 94 0.0 0.0 0.00 0.17 0.08 93 1038.5
20260502104515 37 94 0.0 0.0 0.00 0.17 0.08 92 1038.4
20260502104014 37 94 0.0 0.0 0.00 0.17 0.08 92 1038.3
20260502103514 37 94 0.0 0.0 0.00 0.17 0.08 92 1038.4
20260502103015 37 94 0.0 0.0 0.00 0.17 0.08 92 1038.3
20260502102512 37 94 0.0 0.0 0.00 0.17 0.08 91 1038.2
20260502102021 37 94 0.0 0.0 0.00 0.17 0.08 91 1038.3
20260502101511 37 94 0.0 0.0 0.00 0.17 0.08 91 1038.2
20260502101015 37 94 0.0 0.0 0.00 0.17 0.08 91 1038.2
20260502100509 38 94 0.0 1.0 0.00 0.17 0.08 90 1038.2
20260502091058 41 122 1.0 6.0 0.00 0.17 0.08 88 1037.6
20260502090557 41 105 0.0 6.0 0.00 0.17 0.08 88 1037.5
20260502071038 45 66 0.0 6.0 0.03 0.14 0.05 93 1035.7
20260502070541 46 84 0.0 5.0 0.03 0.14 0.05 93 1035.7
20260502070037 46 77 1.0 5.0 0.02 0.13 0.04 94 1035.7
20260502065536 46 96 0.0 0.0 0.02 0.13 0.04 94 1035.7
20260502065036 46 96 0.0 0.0 0.01 0.12 0.03 94 1035.7
20260502064538 46 96 0.0 0.0 0.00 0.11 0.02 94 1035.7
20260502064035 46 97 0.0 0.0 0.00 0.11 0.02 94 1035.8
20260502063536 46 97 0.0 0.0 0.00 0.11 0.02 94 1035.9
20260502063050 46 97 0.0 0.0 0.00 0.11 0.02 94 1035.9
20260502062536 46 97 0.0 0.0 0.00 0.11 0.02 94 1036.0
20260502062033 46 96 0.0 0.0 0.00 0.11 0.02 94 1036.0
20260502061535 46 97 0.0 0.0 0.00 0.11 0.02 93 1035.9
20260502061033 46 97 0.0 0.0 0.00 0.11 0.02 93 1036.1
20260502060533 46 96 0.0 0.0 0.00 0.11 0.02 93 1035.9
20260502060031 46 97 0.0 0.0 0.00 0.11 0.02 93 1036.1
20260502055530 46 96 0.0 0.0 0.01 0.11 0.02 93 1036.2
20260502055032 47 97 0.0 0.0 0.01 0.11 0.02 93 1036.1
20260502054529 47 97 0.0 0.0 0.01 0.11 0.02 93 1036.4
20260502054030 47 96 0.0 0.0 0.01 0.11 0.02 93 1036.5
20260502053530 47 97 0.0 0.0 0.01 0.11 0.02 93 1036.5
20260502053027 47 97 0.0 0.0 0.01 0.11 0.02 93 1036.7
20260502052527 47 97 0.0 0.0 0.01 0.11 0.02 93 1036.6
20260502052027 47 97 0.0 0.0 0.01 0.11 0.02 93 1036.7
20260502051530 47 96 0.0 0.0 0.01 0.11 0.02 93 1036.8
20260502051027 47 97 0.0 0.0 0.01 0.11 0.02 93 1036.8
20260502050526 47 97 0.0 0.0 0.01 0.11 0.02 93 1036.8
20260502050033 47 97 0.0 0.0 0.02 0.11 0.02 93 1036.8
20260502045526 47 97 0.0 0.0 0.01 0.10 0.01 93 1036.8
20260502045029 47 97 0.0 0.0 0.01 0.10 0.01 93 1036.7
20260502044525 47 97 0.0 0.0 0.01 0.10 0.01 93 1036.8
20260502044025 47 97 0.0 0.0 0.01 0.10 0.01 93 1036.9
20260502043526 47 96 0.0 0.0 0.01 0.10 0.01 93 1037.0
20260502043024 47 96 0.0 0.0 0.02 0.10 0.01 93 1036.7
20260502042523 47 97 0.0 0.0 0.02 0.10 0.01 93 1036.7
20260502042023 47 97 0.0 0.0 0.02 0.10 0.01 93 1036.7
20260502041527 47 97 0.0 0.0 0.03 0.10 0.01 93 1036.8
20260502041021 47 97 0.0 0.0 0.04 0.10 0.01 93 1036.8
20260502040521 47 97 0.0 0.0 0.04 0.10 0.01 93 1036.9
20260502040020 47 97 0.0 0.0 0.03 0.09 0.00 93 1036.8
20260502035519 47 97 0.0 0.0 0.03 0.09 0.09 93 1037.0
20260502035019 47 97 0.0 0.0 0.03 0.09 0.09 93 1036.8
20260502034522 47 97 0.0 0.0 0.03 0.09 0.09 93 1036.8
20260502034019 47 97 0.0 0.0 0.03 0.09 0.09 93 1036.8
20260502033518 47 97 0.0 0.0 0.03 0.09 0.09 93 1036.7
20260502033020 47 97 0.0 0.0 0.02 0.08 0.08 93 1036.9
20260502032518 47 97 0.0 0.0 0.02 0.08 0.08 93 1036.7
20260502032019 47 97 0.0 0.0 0.02 0.08 0.08 93 1036.8
20260502031518 47 97 0.0 0.0 0.01 0.07 0.07 93 1036.9
20260502031018 47 97 0.0 0.0 0.00 0.06 0.06 93 1036.9
20260502030518 47 97 0.0 0.0 0.00 0.06 0.06 92 1036.8
20260502030025 47 97 0.0 0.0 0.00 0.06 0.06 92 1036.8
20260502025518 47 97 0.0 0.0 0.00 0.06 0.06 92 1036.8
20260502025017 47 97 0.0 0.0 0.00 0.06 0.06 92 1036.8
20260502024517 47 97 0.0 0.0 0.00 0.06 0.06 92 1036.7
20260502024017 47 97 0.0 0.0 0.00 0.06 0.06 92 1036.9
20260502023516 47 97 0.0 0.0 0.00 0.06 0.06 92 1036.9
20260502023016 47 97 0.0 0.0 0.01 0.06 0.06 92 1036.8
20260502022517 47 97 0.0 0.0 0.01 0.06 0.06 92 1037.0
20260502022015 47 97 0.0 0.0 0.01 0.06 0.06 92 1037.0
20260502021515 47 97 0.0 0.0 0.01 0.06 0.06 92 1037.0
20260502021015 47 97 0.0 0.0 0.01 0.06 0.06 92 1037.0
20260502020517 47 97 0.0 0.0 0.01 0.06 0.06 92 1037.0
20260502020015 47 97 0.0 0.0 0.01 0.06 0.06 92 1036.9
20260502015515 47 97 0.0 0.0 0.01 0.06 0.06 91 1037.0
20260502015015 47 97 0.0 0.0 0.01 0.06 0.06 91 1036.9
20260502014514 47 97 0.0 0.0 0.01 0.06 0.06 91 1036.8
20260502014014 47 97 0.0 0.0 0.01 0.06 0.06 91 1036.8
20260502013514 47 97 0.0 0.0 0.01 0.06 0.06 91 1036.8
20260502013014 47 97 0.0 0.0 0.01 0.05 0.05 91 1036.6
20260502012517 47 97 0.0 0.0 0.01 0.05 0.05 91 1036.6
20260502012015 47 97 0.0 0.0 0.01 0.05 0.05 91 1036.6
20260502011518 47 97 0.0 0.0 0.01 0.05 0.05 91 1036.5
20260502011012 47 97 0.0 0.0 0.01 0.05 0.05 91 1036.4
20260502010512 47 97 0.0 0.0 0.01 0.05 0.05 91 1036.3
20260502010019 47 97 0.0 0.0 0.01 0.05 0.05 91 1036.3
20260502005512 47 97 0.0 0.0 0.01 0.05 0.05 91 1036.2
20260502005012 47 97 0.0 0.0 0.01 0.05 0.05 91 1036.2
20260502004538 47 97 0.0 0.0 0.01 0.05 0.05 90 1036.2
20260502004012 47 97 0.0 0.0 0.01 0.05 0.05 90 1036.2
20260502003512 47 97 0.0 0.0 0.00 0.04 0.04 90 1036.1
20260502003011 47 97 0.0 0.0 0.00 0.04 0.04 90 1036.0
20260502002511 48 97 0.0 1.0 0.00 0.04 0.04 90 1036.1
20260502002013 48 97 0.0 1.0 0.00 0.04 0.04 90 1036.2
20260502001511 48 97 0.0 1.0 0.01 0.04 0.04 90 1036.1
20260502001011 48 97 0.0 1.0 0.01 0.04 0.04 90 1035.9
20260502000510 48 97 0.0 0.0 0.01 0.04 0.04 89 1036.0
20260502000010 48 98 0.0 0.0 0.01 0.04 0.04 89 1035.9
20260501235510 47 98 0.0 0.0 0.02 0.07 0.04 89 1035.9
20260501235010 48 98 0.0 0.0 0.02 0.07 0.04 88 1035.6
20260501234510 48 98 0.0 0.0 0.02 0.07 0.04 88 1035.7
20260501234013 48 98 0.0 0.0 0.03 0.07 0.04 88 1035.7
20260501233510 48 98 0.0 0.0 0.03 0.07 0.04 88 1035.8
20260501233010 48 98 0.0 0.0 0.03 0.07 0.04 88 1035.7
20260501232511 48 98 0.0 0.0 0.03 0.07 0.04 88 1035.6
20260501232014 48 89 0.0 0.0 0.03 0.07 0.04 87 1035.5
20260501231515 48 89 0.0 0.0 0.02 0.06 0.03 86 1035.8
20260501231008 49 89 0.0 0.0 0.02 0.06 0.03 86 1035.9
20260501230511 49 89 0.0 2.0 0.02 0.06 0.03 86 1036.0
20260501230009 49 89 0.0 3.0 0.01 0.05 0.02 85 1036.0
20260501225510 49 77 0.0 3.0 0.01 0.06 0.02 85 1035.9
20260501225008 49 103 0.0 6.0 0.01 0.06 0.02 84 1036.1
20260501224509 50 72 2.0 6.0 0.01 0.06 0.02 82 1035.9
20260501224008 50 77 2.0 10.0 0.00 0.05 0.01 81 1036.1
20260501223511 50 69 0.0 10.0 0.00 0.05 0.01 80 1036.0
20260501223010 51 86 0.0 8.0 0.00 0.05 0.01 79 1035.8
20260501222508 51 86 1.0 8.0 0.00 0.05 0.01 77 1035.8
20260501222007 51 69 3.0 8.0 0.00 0.05 0.01 76 1035.8
20260501221506 52 78 0.0 7.0 0.00 0.05 0.01 77 1035.8
20260501221006 52 77 1.0 8.0 0.00 0.05 0.01 75 1035.8
20260501220506 52 86 2.0 8.0 0.00 0.05 0.01 74 1035.6
20260501220006 53 71 0.0 9.0 0.00 0.05 0.01 72 1035.6
20260501215506 53 85 1.0 9.0 0.00 0.07 0.01 70 1035.5
20260501215006 54 81 1.0 9.0 0.00 0.07 0.01 69 1035.5
20260501214512 54 87 3.0 9.0 0.00 0.07 0.01 67 1035.4
20260501214009 54 73 2.0 9.0 0.00 0.07 0.01 68 1035.3
20260501213505 55 113 2.0 9.0 0.00 0.07 0.01 66 1035.2
20260501213015 55 89 2.0 5.0 0.00 0.07 0.01 65 1035.0
20260501212505 55 70 0.0 5.0 0.00 0.07 0.01 64 1034.9